Location: Potomac
(46.8816°N, 113.5795°W)
Time: 17:10:59
(UTC+00:00)

JY1SAT - Pass Details

Date: 05 July 2022
Orbit: 564 x 586 km, 97.6° (Epoch: 18 August)

Event Time Altitude Azimuth Distance (km) Brightness Sun altitude
Exits shadow 06:03:19 - 221° (SW) 1,973 ? -17.1°
Reaches altitude 10° 06:03:32 10° 223° (SW) 1,910 ? -17.1°
Maximum altitude 06:06:28 19° 268° (W) 1,441 ? -17.3°
Drops below altitude 10° 06:09:25 10° 314° (NW) 1,919 ? -17.5°
Sets 06:12:09 0° 333° (NNW) 2,823 ? -17.6°
